Time,TemperatureF,DewpointF,PressureIn,WindDirection,WindDirectionDegrees,WindSpeedMPH,WindSpeedGustMPH,Humidity,HourlyPrecipIn,Conditions,Clouds,dailyrainin,SolarRadiationWatts/m^2,SoftwareType,DateUTC
2014-04-18 00:00:00,54.7,50.9,30.56,NNE,25,0.0,-999.0,87,0.00,,,0.04,1,WeatherHawk,2014-04-18 05:00:00,
2014-04-18 00:09:00,54.7,50.9,30.57,NE,34,0.0,-999.0,87,0.00,,,0.00,0,WeatherHawk,2014-04-18 05:09:00,
2014-04-18 00:14:00,54.6,51.1,30.57,ENE,64,0.0,-999.0,88,0.00,,,0.00,0,WeatherHawk,2014-04-18 05:14:00,
2014-04-18 00:19:00,54.3,50.9,30.57,ENE,64,0.0,-999.0,88,0.00,,,0.00,0,WeatherHawk,2014-04-18 05:19:00,
2014-04-18 00:24:00,54.5,51.3,30.57,East,100,0.0,-999.0,89,0.00,,,0.00,0,WeatherHawk,2014-04-18 05:24:00,
2014-04-18 00:29:00,54.3,51.5,30.57,NE,41,0.0,-999.0,90,0.00,,,0.00,0,WeatherHawk,2014-04-18 05:29:00,
2014-04-18 00:34:00,54.5,51.4,30.57,NE,46,0.0,-999.0,89,0.00,,,0.00,0,WeatherHawk,2014-04-18 05:34:00,
2014-04-18 00:40:00,54.6,51.4,30.57,NE,55,0.0,-999.0,89,0.00,,,0.00,0,WeatherHawk,2014-04-18 05:40:00,
2014-04-18 00:45:00,54.5,51.6,30.57,NE,55,0.0,-999.0,90,0.00,,,0.00,0,WeatherHawk,2014-04-18 05:45:00,
2014-04-18 00:49:00,54.6,51.7,30.57,NE,55,0.0,-999.0,90,0.00,,,0.00,0,WeatherHawk,2014-04-18 05:49:00,
2014-04-18 00:54:00,54.5,51.6,30.57,North,349,0.0,-999.0,90,0.00,,,0.00,0,WeatherHawk,2014-04-18 05:54:00,
2014-04-18 01:00:00,54.7,52.1,30.57,NNE,33,0.0,-999.0,91,0.00,,,0.00,0,WeatherHawk,2014-04-18 06:00:00,
2014-04-18 01:05:00,54.8,51.9,30.56,NNE,20,0.0,-999.0,90,0.00,,,0.00,0,WeatherHawk,2014-04-18 06:05:00,
2014-04-18 01:09:00,54.9,52.0,30.57,NE,44,0.0,-999.0,90,0.00,,,0.00,0,WeatherHawk,2014-04-18 06:09:00,
2014-04-18 01:14:00,54.8,51.9,30.56,NE,44,0.0,-999.0,90,0.00,,,0.00,0,WeatherHawk,2014-04-18 06:14:00,
2014-04-18 01:19:00,54.6,51.7,30.56,SE,126,0.0,-999.0,90,0.00,,,0.00,0,WeatherHawk,2014-04-18 06:19:00,
2014-04-18 01:25:00,54.5,51.6,30.56,South,170,0.0,-999.0,90,0.00,,,0.00,0,WeatherHawk,2014-04-18 06:25:00,
2014-04-18 01:29:00,54.5,51.9,30.56,South,186,0.0,-999.0,91,0.00,,,0.00,0,WeatherHawk,2014-04-18 06:29:00,
2014-04-18 01:34:00,54.5,52.2,30.56,South,191,0.0,-999.0,92,0.00,,,0.00,0,WeatherHawk,2014-04-18 06:34:00,
2014-04-18 01:40:00,54.6,52.3,30.56,SW,226,0.0,-999.0,92,0.00,,,0.00,0,WeatherHawk,2014-04-18 06:40:00,
2014-04-18 01:45:00,54.3,52.0,30.56,SW,226,0.0,-999.0,92,0.00,,,0.00,0,WeatherHawk,2014-04-18 06:45:00,
2014-04-18 01:49:00,54.3,52.0,30.55,South,186,0.0,-999.0,92,0.00,,,0.00,0,WeatherHawk,2014-04-18 06:49:00,
2014-04-18 01:54:00,54.1,51.8,30.55,South,185,0.0,-999.0,92,0.00,,,0.00,0,WeatherHawk,2014-04-18 06:54:00,
2014-04-18 02:00:00,54.1,52.1,30.55,South,183,0.0,-999.0,93,0.00,,,0.00,0,WeatherHawk,2014-04-18 07:00:00,
2014-04-18 02:05:00,54.1,52.1,30.55,South,183,0.0,-999.0,93,0.00,,,0.00,0,WeatherHawk,2014-04-18 07:05:00,
2014-04-18 02:09:00,53.9,52.0,30.55,South,183,0.0,-999.0,93,0.00,,,0.00,0,WeatherHawk,2014-04-18 07:09:00,
2014-04-18 02:14:00,53.8,51.8,30.55,South,183,0.0,-999.0,93,0.00,,,0.00,0,WeatherHawk,2014-04-18 07:14:00,
2014-04-18 02:19:00,54.0,52.0,30.55,South,183,0.0,-999.0,93,0.00,,,0.00,0,WeatherHawk,2014-04-18 07:19:00,
2014-04-18 02:25:00,53.8,52.1,30.55,South,183,0.0,-999.0,94,0.00,,,0.00,0,WeatherHawk,2014-04-18 07:25:00,
2014-04-18 02:29:00,53.9,52.2,30.55,South,183,0.0,-999.0,94,0.00,,,0.00,0,WeatherHawk,2014-04-18 07:29:00,
2014-04-18 02:34:00,53.9,52.2,30.55,South,183,0.0,-999.0,94,0.00,,,0.00,0,WeatherHawk,2014-04-18 07:34:00,
2014-04-18 02:40:00,53.8,52.2,30.55,South,183,0.0,-999.0,94,0.00,,,0.00,0,WeatherHawk,2014-04-18 07:40:00,
2014-04-18 02:45:00,54.0,52.4,30.54,South,183,0.0,-999.0,94,0.00,,,0.00,1,WeatherHawk,2014-04-18 07:45:00,
2014-04-18 02:49:00,54.0,52.3,30.55,South,183,0.0,-999.0,94,0.00,,,0.00,0,WeatherHawk,2014-04-18 07:49:00,
2014-04-18 02:54:00,54.0,52.3,30.54,NNE,18,0.0,-999.0,94,0.00,,,0.00,0,WeatherHawk,2014-04-18 07:54:00,
2014-04-18 03:00:00,54.2,52.5,30.55,NNE,17,0.0,-999.0,94,0.00,,,0.00,0,WeatherHawk,2014-04-18 08:00:00,
2014-04-18 03:05:00,54.2,52.5,30.54,North,7,0.0,-999.0,94,0.00,,,0.00,0,WeatherHawk,2014-04-18 08:05:00,
2014-04-18 03:10:00,54.2,52.6,30.54,NNE,27,0.0,-999.0,94,0.00,,,0.00,0,WeatherHawk,2014-04-18 08:10:00,
2014-04-18 03:14:00,54.1,52.4,30.54,NNE,28,0.0,-999.0,94,0.00,,,0.00,0,WeatherHawk,2014-04-18 08:14:00,
2014-04-18 03:20:00,54.2,52.2,30.55,NNW,335,0.0,-999.0,93,0.00,,,0.00,0,WeatherHawk,2014-04-18 08:20:00,
2014-04-18 03:25:00,54.2,52.5,30.54,NW,326,0.0,-999.0,94,0.00,,,0.00,0,WeatherHawk,2014-04-18 08:25:00,
2014-04-18 03:30:00,54.3,52.4,30.54,NNW,330,0.0,-999.0,93,0.00,,,0.00,0,WeatherHawk,2014-04-18 08:30:00,
2014-04-18 03:34:00,54.2,52.2,30.54,West,270,0.0,-999.0,93,0.00,,,0.00,0,WeatherHawk,2014-04-18 08:34:00,
2014-04-18 03:40:00,54.4,52.4,30.54,NE,39,0.0,-999.0,93,0.00,,,0.00,1,WeatherHawk,2014-04-18 08:40:00,
2014-04-18 03:45:00,54.4,52.4,30.54,NE,39,0.0,-999.0,93,0.00,,,0.00,0,WeatherHawk,2014-04-18 08:45:00,
2014-04-18 03:50:00,54.0,52.0,30.53,WSW,247,0.0,-999.0,93,0.00,,,0.00,0,WeatherHawk,2014-04-18 08:50:00,
2014-04-18 03:54:00,53.8,51.8,30.54,WSW,247,0.0,-999.0,93,0.00,,,0.00,0,WeatherHawk,2014-04-18 08:54:00,
2014-04-18 04:00:00,53.4,51.4,30.54,WSW,247,0.0,-999.0,93,0.00,,,0.00,0,WeatherHawk,2014-04-18 09:00:00,
2014-04-18 04:05:00,53.0,51.3,30.54,ENE,59,0.0,-999.0,94,0.00,,,0.00,0,WeatherHawk,2014-04-18 09:05:00,
2014-04-18 04:10:00,52.3,50.6,30.54,NE,44,0.0,-999.0,94,0.00,,,0.00,0,WeatherHawk,2014-04-18 09:10:00,
2014-04-18 04:14:00,52.1,50.4,30.54,NE,44,0.0,-999.0,94,0.00,,,0.00,0,WeatherHawk,2014-04-18 09:14:00,
2014-04-18 04:20:00,51.9,50.5,30.53,NE,44,0.0,-999.0,95,0.00,,,0.00,0,WeatherHawk,2014-04-18 09:20:00,
2014-04-18 04:25:00,51.5,50.1,30.55,NE,44,0.0,-999.0,95,0.00,,,0.00,0,WeatherHawk,2014-04-18 09:25:00,
2014-04-18 04:30:00,51.4,50.3,30.55,NE,44,0.0,-999.0,96,0.00,,,0.00,0,WeatherHawk,2014-04-18 09:30:00,
2014-04-18 04:34:00,50.9,49.8,30.55,NE,44,0.0,-999.0,96,0.00,,,0.00,0,WeatherHawk,2014-04-18 09:34:00,
2014-04-18 04:40:00,51.4,50.3,30.55,NE,44,0.0,-999.0,96,0.00,,,0.00,1,WeatherHawk,2014-04-18 09:40:00,
2014-04-18 04:45:00,51.5,50.4,30.54,NE,40,0.0,-999.0,96,0.00,,,0.00,0,WeatherHawk,2014-04-18 09:45:00,
2014-04-18 04:50:00,52.5,51.4,30.55,North,0,0.0,-999.0,96,0.00,,,0.00,0,WeatherHawk,2014-04-18 09:50:00,
2014-04-18 04:54:00,52.9,52.1,30.55,NNE,13,0.0,-999.0,97,0.00,,,0.00,0,WeatherHawk,2014-04-18 09:54:00,
2014-04-18 05:00:00,53.1,52.3,30.55,NNE,22,0.0,-999.0,97,0.00,,,0.00,0,WeatherHawk,2014-04-18 10:00:00,
2014-04-18 05:05:00,53.4,52.9,30.54,NNE,18,0.0,-999.0,98,0.00,,,0.00,0,WeatherHawk,2014-04-18 10:05:00,
2014-04-18 05:10:00,54.2,53.6,30.54,NNE,31,3.0,-999.0,98,0.00,,,0.00,0,WeatherHawk,2014-04-18 10:10:00,
2014-04-18 05:14:00,54.5,53.6,30.54,North,351,0.0,-999.0,97,0.00,,,0.00,0,WeatherHawk,2014-04-18 10:14:00,
2014-04-18 05:19:00,54.4,53.3,30.55,NNW,333,0.0,-999.0,96,0.00,,,0.00,0,WeatherHawk,2014-04-18 10:19:00,
2014-04-18 05:25:00,54.3,52.9,30.55,WNW,303,0.0,-999.0,95,0.00,,,0.00,0,WeatherHawk,2014-04-18 10:25:00,
2014-04-18 05:30:00,54.3,52.8,30.55,WNW,303,0.0,-999.0,95,0.00,,,0.00,0,WeatherHawk,2014-04-18 10:30:00,
2014-04-18 05:34:00,54.2,52.8,30.55,WNW,303,0.0,-999.0,95,0.00,,,0.00,0,WeatherHawk,2014-04-18 10:34:00,
2014-04-18 05:39:00,54.2,52.8,30.54,NW,304,0.0,-999.0,95,0.00,,,0.00,1,WeatherHawk,2014-04-18 10:39:00,
2014-04-18 05:44:00,54.3,52.9,30.55,WNW,303,0.0,-999.0,95,0.00,,,0.00,0,WeatherHawk,2014-04-18 10:44:00,
2014-04-18 05:49:00,54.3,52.9,30.55,NNW,330,0.0,-999.0,95,0.00,,,0.00,0,WeatherHawk,2014-04-18 10:49:00,
2014-04-18 05:54:00,54.3,52.6,30.55,NNW,330,0.0,-999.0,94,0.00,,,0.00,0,WeatherHawk,2014-04-18 10:54:00,
2014-04-18 05:59:00,54.1,52.4,30.55,WSW,252,0.0,-999.0,94,0.00,,,0.00,0,WeatherHawk,2014-04-18 10:59:00,
2014-04-18 06:04:00,54.1,52.4,30.54,WSW,252,0.0,-999.0,94,0.00,,,0.00,0,WeatherHawk,2014-04-18 11:04:00,
2014-04-18 06:09:00,54.2,52.5,30.55,WSW,252,0.0,-999.0,94,0.00,,,0.00,1,WeatherHawk,2014-04-18 11:09:00,
2014-04-18 06:14:00,54.2,52.8,30.54,WSW,252,0.0,-999.0,95,0.00,,,0.00,0,WeatherHawk,2014-04-18 11:14:00,
2014-04-18 06:19:00,54.2,52.8,30.55,WSW,252,0.0,-999.0,95,0.00,,,0.00,0,WeatherHawk,2014-04-18 11:19:00,
2014-04-18 06:24:00,54.4,53.0,30.55,WSW,253,0.0,-999.0,95,0.00,,,0.00,1,WeatherHawk,2014-04-18 11:24:00,
2014-04-18 06:29:00,54.4,53.0,30.55,NNE,32,0.0,-999.0,95,0.00,,,0.00,0,WeatherHawk,2014-04-18 11:29:00,
2014-04-18 06:34:00,54.4,53.0,30.55,NNE,32,0.0,-999.0,95,0.00,,,0.00,0,WeatherHawk,2014-04-18 11:34:00,
2014-04-18 06:39:00,54.4,52.7,30.56,NNE,32,0.0,-999.0,94,0.00,,,0.00,0,WeatherHawk,2014-04-18 11:39:00,
2014-04-18 06:44:00,54.5,52.8,30.56,WNW,286,0.0,-999.0,94,0.00,,,0.00,0,WeatherHawk,2014-04-18 11:44:00,
2014-04-18 06:49:00,54.4,52.5,30.55,WNW,289,0.0,-999.0,93,0.00,,,0.00,0,WeatherHawk,2014-04-18 11:49:00,
2014-04-18 06:54:00,54.5,52.5,30.56,WNW,289,0.0,-999.0,93,0.00,,,0.00,2,WeatherHawk,2014-04-18 11:54:00,
2014-04-18 06:59:00,54.5,52.5,30.56,WNW,290,0.0,-999.0,93,0.00,,,0.00,3,WeatherHawk,2014-04-18 11:59:00,
2014-04-18 07:04:00,54.5,52.5,30.56,WNW,290,0.0,-999.0,93,0.00,,,0.00,4,WeatherHawk,2014-04-18 12:04:00,
2014-04-18 07:09:00,54.6,52.6,30.56,WNW,290,0.0,-999.0,93,0.00,,,0.00,1,WeatherHawk,2014-04-18 12:09:00,
2014-04-18 07:14:00,54.4,52.4,30.57,WNW,290,0.0,-999.0,93,0.00,,,0.00,9,WeatherHawk,2014-04-18 12:14:00,
2014-04-18 07:19:00,54.5,52.3,30.57,West,261,0.0,-999.0,92,0.00,,,0.00,15,WeatherHawk,2014-04-18 12:19:00,
2014-04-18 07:24:00,54.7,52.4,30.57,West,261,0.0,-999.0,92,0.00,,,0.00,22,WeatherHawk,2014-04-18 12:24:00,
2014-04-18 07:29:00,54.7,51.9,30.57,NNE,28,0.0,-999.0,90,0.00,,,0.00,27,WeatherHawk,2014-04-18 12:29:00,
2014-04-18 07:34:00,54.8,51.0,30.57,NNW,346,0.0,-999.0,87,0.00,,,0.00,34,WeatherHawk,2014-04-18 12:34:00,
2014-04-18 07:39:00,54.8,50.1,30.58,NNE,27,0.0,-999.0,84,0.00,,,0.00,45,WeatherHawk,2014-04-18 12:39:00,
2014-04-18 07:44:00,54.8,49.1,30.57,NE,46,5.0,-999.0,81,0.00,,,0.00,61,WeatherHawk,2014-04-18 12:44:00,
2014-04-18 07:49:00,54.6,48.5,30.57,NE,35,2.0,-999.0,80,0.00,,,0.00,71,WeatherHawk,2014-04-18 12:49:00,
2014-04-18 07:54:00,54.7,48.7,30.58,NNE,18,1.0,-999.0,80,0.00,,,0.00,79,WeatherHawk,2014-04-18 12:54:00,
2014-04-18 07:59:00,54.6,47.9,30.57,NNW,348,5.0,-999.0,78,0.00,,,0.00,75,WeatherHawk,2014-04-18 12:59:00,
2014-04-18 08:04:00,54.0,47.3,30.58,NE,36,3.0,-999.0,78,0.00,,,0.00,77,WeatherHawk,2014-04-18 13:04:00,
2014-04-18 08:09:00,54.1,48.1,30.58,NE,39,5.0,-999.0,80,0.00,,,0.00,93,WeatherHawk,2014-04-18 13:09:00,
2014-04-18 08:14:00,54.2,47.2,30.58,NE,46,5.0,-999.0,77,0.00,,,0.00,105,WeatherHawk,2014-04-18 13:14:00,
2014-04-18 08:19:00,54.4,45.9,30.57,NE,45,7.0,-999.0,73,0.00,,,0.00,117,WeatherHawk,2014-04-18 13:19:00,
2014-04-18 08:24:00,54.4,45.2,30.58,NE,45,8.0,-999.0,71,0.00,,,0.00,129,WeatherHawk,2014-04-18 13:24:00,
2014-04-18 08:29:00,54.2,45.0,30.58,NE,40,9.0,-999.0,71,0.00,,,0.00,131,WeatherHawk,2014-04-18 13:29:00,
2014-04-18 08:34:00,54.3,44.4,30.57,NE,54,6.0,-999.0,69,0.00,,,0.00,145,WeatherHawk,2014-04-18 13:34:00,
2014-04-18 08:39:00,54.3,44.3,30.57,NE,38,6.0,-999.0,69,0.00,,,0.00,149,WeatherHawk,2014-04-18 13:39:00,
2014-04-18 08:44:00,54.7,44.3,30.58,NE,35,7.0,-999.0,68,0.00,,,0.00,161,WeatherHawk,2014-04-18 13:44:00,
2014-04-18 08:49:00,54.6,43.5,30.58,NE,55,7.0,-999.0,66,0.00,,,0.00,166,WeatherHawk,2014-04-18 13:49:00,
2014-04-18 08:54:00,54.7,44.0,30.57,East,95,6.0,-999.0,67,0.00,,,0.00,178,WeatherHawk,2014-04-18 13:54:00,
2014-04-18 08:59:00,55.0,43.1,30.57,ENE,58,6.0,-999.0,64,0.00,,,0.00,192,WeatherHawk,2014-04-18 13:59:00,
2014-04-18 09:04:00,55.6,43.2,30.57,NE,49,7.0,-999.0,63,0.00,,,0.00,223,WeatherHawk,2014-04-18 14:04:00,
2014-04-18 09:09:00,56.2,44.2,30.57,East,88,6.0,-999.0,64,0.00,,,0.00,327,WeatherHawk,2014-04-18 14:09:00,
2014-04-18 09:14:00,58.3,46.2,30.57,NE,45,4.0,-999.0,64,0.00,,,0.00,399,WeatherHawk,2014-04-18 14:14:00,
2014-04-18 09:19:00,58.4,44.2,30.57,NE,48,1.0,-999.0,59,0.00,,,0.00,407,WeatherHawk,2014-04-18 14:19:00,
2014-04-18 09:24:00,58.9,41.8,30.57,NE,46,6.0,-999.0,53,0.00,,,0.00,598,WeatherHawk,2014-04-18 14:24:00,
2014-04-18 09:29:00,59.5,40.9,30.56,ENE,71,2.0,-999.0,50,0.00,,,0.00,384,WeatherHawk,2014-04-18 14:29:00,
2014-04-18 09:34:00,60.1,42.4,30.57,East,86,0.0,-999.0,52,0.00,,,0.00,368,WeatherHawk,2014-04-18 14:34:00,
2014-04-18 09:39:00,58.6,39.0,30.56,ENE,62,7.0,-999.0,48,0.00,,,0.00,390,WeatherHawk,2014-04-18 14:39:00,
2014-04-18 09:44:00,62.9,44.0,30.56,NE,36,5.0,-999.0,50,0.00,,,0.00,673,WeatherHawk,2014-04-18 14:44:00,
2014-04-18 09:49:00,63.0,42.4,30.56,NE,53,2.0,-999.0,47,0.00,,,0.00,610,WeatherHawk,2014-04-18 14:49:00,
2014-04-18 09:54:00,61.1,39.6,30.56,ENE,63,6.0,-999.0,45,0.00,,,0.00,594,WeatherHawk,2014-04-18 14:54:00,
2014-04-18 09:59:00,60.8,39.4,30.56,NNE,22,1.0,-999.0,45,0.00,,,0.00,368,WeatherHawk,2014-04-18 14:59:00,
2014-04-18 10:04:00,60.1,38.1,30.56,ENE,61,6.0,-999.0,44,0.00,,,0.00,442,WeatherHawk,2014-04-18 15:04:00,
2014-04-18 10:09:00,60.4,39.5,30.56,NE,51,4.0,-999.0,46,0.00,,,0.00,464,WeatherHawk,2014-04-18 15:09:00,
2014-04-18 10:14:00,60.7,39.2,30.56,NE,45,5.0,-999.0,45,0.00,,,0.00,386,WeatherHawk,2014-04-18 15:14:00,
2014-04-18 10:19:00,62.2,40.6,30.56,NE,36,0.0,-999.0,45,0.00,,,0.00,446,WeatherHawk,2014-04-18 15:19:00,
2014-04-18 10:24:00,61.1,38.5,30.56,NE,55,2.0,-999.0,43,0.00,,,0.00,647,WeatherHawk,2014-04-18 15:24:00,
2014-04-18 10:29:00,61.9,39.8,30.56,ENE,62,6.0,-999.0,44,0.00,,,0.00,674,WeatherHawk,2014-04-18 15:29:00,
2014-04-18 10:34:00,62.6,37.3,30.56,NE,39,6.0,-999.0,39,0.00,,,0.00,688,WeatherHawk,2014-04-18 15:34:00,
2014-04-18 10:39:00,62.4,36.4,30.56,NE,52,6.0,-999.0,38,0.00,,,0.00,703,WeatherHawk,2014-04-18 15:39:00,
2014-04-18 10:44:00,63.2,35.1,30.56,NE,47,7.0,-999.0,35,0.00,,,0.00,719,WeatherHawk,2014-04-18 15:44:00,
2014-04-18 10:49:00,65.5,37.1,30.56,NE,50,8.0,-999.0,35,0.00,,,0.00,727,WeatherHawk,2014-04-18 15:49:00,
2014-04-18 10:54:00,65.0,38.1,30.55,NE,56,7.0,-999.0,37,0.00,,,0.00,738,WeatherHawk,2014-04-18 15:54:00,
2014-04-18 10:59:00,63.0,34.9,30.56,NE,49,4.0,-999.0,35,0.00,,,0.00,760,WeatherHawk,2014-04-18 15:59:00,
2014-04-18 11:04:00,65.8,35.9,30.55,SSE,155,0.0,-999.0,33,0.00,,,0.00,776,WeatherHawk,2014-04-18 16:04:00,
2014-04-18 11:09:00,65.0,31.1,30.54,SE,124,3.0,-999.0,28,0.00,,,0.00,787,WeatherHawk,2014-04-18 16:09:00,
2014-04-18 11:14:00,64.9,32.7,30.54,ESE,106,5.0,-999.0,30,0.00,,,0.00,800,WeatherHawk,2014-04-18 16:14:00,
2014-04-18 11:19:00,66.2,32.2,30.54,NE,45,5.0,-999.0,28,0.00,,,0.00,806,WeatherHawk,2014-04-18 16:19:00,
2014-04-18 11:24:00,64.7,31.7,30.54,NE,41,4.0,-999.0,29,0.00,,,0.00,825,WeatherHawk,2014-04-18 16:24:00,
2014-04-18 11:29:00,65.9,32.7,30.54,NE,44,3.0,-999.0,29,0.00,,,0.00,828,WeatherHawk,2014-04-18 16:29:00,
2014-04-18 11:34:00,65.7,32.5,30.53,NE,43,4.0,-999.0,29,0.00,,,0.00,840,WeatherHawk,2014-04-18 16:34:00,
2014-04-18 11:39:00,63.8,30.1,30.54,NNE,33,7.0,-999.0,28,0.00,,,0.00,857,WeatherHawk,2014-04-18 16:39:00,
2014-04-18 11:44:00,69.2,36.5,30.53,ENE,68,0.0,-999.0,30,0.00,,,0.00,863,WeatherHawk,2014-04-18 16:44:00,
2014-04-18 11:49:00,65.7,30.8,30.53,ENE,70,1.0,-999.0,27,0.00,,,0.00,869,WeatherHawk,2014-04-18 16:49:00,
2014-04-18 11:54:00,66.0,30.1,30.54,NNW,347,0.0,-999.0,26,0.00,,,0.00,894,WeatherHawk,2014-04-18 16:54:00,
2014-04-18 11:59:00,66.0,31.1,30.52,NNE,20,5.0,-999.0,27,0.00,,,0.00,894,WeatherHawk,2014-04-18 16:59:00,
2014-04-18 12:04:00,66.4,34.8,30.53,ENE,64,4.0,-999.0,31,0.00,,,0.00,900,WeatherHawk,2014-04-18 17:04:00,
2014-04-18 12:09:00,64.5,31.6,30.53,NE,37,9.0,-999.0,29,0.00,,,0.00,911,WeatherHawk,2014-04-18 17:09:00,
2014-04-18 12:14:00,66.4,31.4,30.52,SE,143,1.0,-999.0,27,0.00,,,0.00,920,WeatherHawk,2014-04-18 17:14:00,
2014-04-18 12:19:00,66.2,29.4,30.51,NNE,16,0.0,-999.0,25,0.00,,,0.00,932,WeatherHawk,2014-04-18 17:19:00,
2014-04-18 12:24:00,67.8,32.6,30.52,SE,141,0.0,-999.0,27,0.00,,,0.00,955,WeatherHawk,2014-04-18 17:24:00,
2014-04-18 12:29:00,68.1,30.9,30.51,South,179,0.0,-999.0,25,0.00,,,0.00,957,WeatherHawk,2014-04-18 17:29:00,
2014-04-18 12:34:00,72.2,37.3,30.51,ESE,105,1.0,-999.0,28,0.00,,,0.00,962,WeatherHawk,2014-04-18 17:34:00,
2014-04-18 12:39:00,70.3,32.8,30.52,NE,54,0.0,-999.0,25,0.00,,,0.00,1022,WeatherHawk,2014-04-18 17:39:00,
2014-04-18 12:44:00,67.0,26.9,30.50,ESE,122,4.0,-999.0,22,0.00,,,0.00,1014,WeatherHawk,2014-04-18 17:44:00,
2014-04-18 12:49:00,66.2,28.4,30.50,North,0,6.0,-999.0,24,0.00,,,0.00,906,WeatherHawk,2014-04-18 17:49:00,
2014-04-18 12:54:00,70.6,33.0,30.51,ENE,62,0.0,-999.0,25,0.00,,,0.00,1028,WeatherHawk,2014-04-18 17:54:00,
2014-04-18 12:59:00,67.2,29.2,30.50,ENE,57,6.0,-999.0,24,0.00,,,0.00,1004,WeatherHawk,2014-04-18 17:59:00,
2014-04-18 13:04:00,70.2,30.7,30.50,NE,34,2.0,-999.0,23,0.00,,,0.00,1047,WeatherHawk,2014-04-18 18:04:00,
2014-04-18 13:09:00,67.1,25.9,30.49,NNE,15,4.0,-999.0,21,0.00,,,0.00,1126,WeatherHawk,2014-04-18 18:09:00,
2014-04-18 13:14:00,67.1,26.9,30.49,NNE,26,4.0,-999.0,22,0.00,,,0.00,273,WeatherHawk,2014-04-18 18:14:00,
2014-04-18 13:19:00,67.9,31.7,30.49,North,0,4.0,-999.0,26,0.00,,,0.00,384,WeatherHawk,2014-04-18 18:19:00,
2014-04-18 13:24:00,67.7,29.6,30.50,NNE,32,5.0,-999.0,24,0.00,,,0.00,1267,WeatherHawk,2014-04-18 18:24:00,
2014-04-18 13:29:00,67.9,29.7,30.50,NE,49,4.0,-999.0,24,0.00,,,0.00,301,WeatherHawk,2014-04-18 18:29:00,
2014-04-18 13:34:00,67.8,29.7,30.49,NNW,344,0.0,-999.0,24,0.00,,,0.00,933,WeatherHawk,2014-04-18 18:34:00,
2014-04-18 13:39:00,70.6,32.0,30.50,NE,55,2.0,-999.0,24,0.00,,,0.00,1126,WeatherHawk,2014-04-18 18:39:00,
2014-04-18 13:44:00,71.8,30.9,30.49,SE,145,1.0,-999.0,22,0.00,,,0.00,1155,WeatherHawk,2014-04-18 18:44:00,
2014-04-18 13:49:00,72.6,30.4,30.48,ENE,71,1.0,-999.0,21,0.00,,,0.00,1131,WeatherHawk,2014-04-18 18:49:00,
2014-04-18 13:54:00,71.1,29.2,30.48,NE,38,0.0,-999.0,21,0.00,,,0.00,1126,WeatherHawk,2014-04-18 18:54:00,
2014-04-18 13:59:00,71.0,27.9,30.47,North,1,0.0,-999.0,20,0.00,,,0.00,1083,WeatherHawk,2014-04-18 18:59:00,
2014-04-18 14:04:00,69.6,30.1,30.47,NE,39,0.0,-999.0,23,0.00,,,0.00,305,WeatherHawk,2014-04-18 19:04:00,
2014-04-18 14:09:00,68.8,31.5,30.47,NE,38,5.0,-999.0,25,0.00,,,0.00,291,WeatherHawk,2014-04-18 19:09:00,
2014-04-18 14:14:00,69.5,30.1,30.47,NE,38,7.0,-999.0,23,0.00,,,0.00,1210,WeatherHawk,2014-04-18 19:14:00,
2014-04-18 14:19:00,67.8,29.7,30.48,NNE,29,2.0,-999.0,24,0.00,,,0.00,214,WeatherHawk,2014-04-18 19:19:00,
2014-04-18 14:24:00,68.8,32.5,30.48,NNE,21,2.0,-999.0,26,0.00,,,0.00,293,WeatherHawk,2014-04-18 19:24:00,
2014-04-18 14:29:00,68.8,31.5,30.48,NNW,348,1.0,-999.0,25,0.00,,,0.00,347,WeatherHawk,2014-04-18 19:29:00,
2014-04-18 14:34:00,69.9,30.4,30.47,East,81,0.0,-999.0,23,0.00,,,0.00,240,WeatherHawk,2014-04-18 19:34:00,
2014-04-18 14:39:00,70.1,32.6,30.48,ESE,111,1.0,-999.0,25,0.00,,,0.00,237,WeatherHawk,2014-04-18 19:39:00,
2014-04-18 14:44:00,69.8,31.4,30.47,SE,142,2.0,-999.0,24,0.00,,,0.00,338,WeatherHawk,2014-04-18 19:44:00,
2014-04-18 14:49:00,71.3,33.6,30.48,SSE,152,0.0,-999.0,25,0.00,,,0.00,376,WeatherHawk,2014-04-18 19:49:00,
2014-04-18 14:54:00,71.0,26.6,30.48,South,173,2.0,-999.0,19,0.00,,,0.00,1184,WeatherHawk,2014-04-18 19:54:00,
2014-04-18 14:59:00,69.7,26.8,30.46,South,173,6.0,-999.0,20,0.00,,,0.00,334,WeatherHawk,2014-04-18 19:59:00,
2014-04-18 15:04:00,70.1,29.5,30.47,North,5,0.0,-999.0,22,0.00,,,0.00,234,WeatherHawk,2014-04-18 20:04:00,
2014-04-18 15:09:00,70.0,31.6,30.46,NNE,15,0.0,-999.0,24,0.00,,,0.00,259,WeatherHawk,2014-04-18 20:09:00,
2014-04-18 15:14:00,68.8,28.4,30.46,NE,34,4.0,-999.0,22,0.00,,,0.00,388,WeatherHawk,2014-04-18 20:14:00,
2014-04-18 15:19:00,69.9,30.4,30.47,North,1,0.0,-999.0,23,0.00,,,0.00,361,WeatherHawk,2014-04-18 20:19:00,
2014-04-18 15:24:00,72.0,28.7,30.46,ENE,68,0.0,-999.0,20,0.00,,,0.00,428,WeatherHawk,2014-04-18 20:24:00,
2014-04-18 15:29:00,73.9,27.7,30.45,SSW,209,0.0,-999.0,18,0.00,,,0.00,1099,WeatherHawk,2014-04-18 20:29:00,
2014-04-18 15:34:00,72.4,27.8,30.44,SE,125,4.0,-999.0,19,0.00,,,0.00,1037,WeatherHawk,2014-04-18 20:34:00,
2014-04-18 15:39:00,72.2,24.9,30.45,ENE,70,3.0,-999.0,17,0.00,,,0.00,1028,WeatherHawk,2014-04-18 20:39:00,
2014-04-18 15:44:00,73.6,28.8,30.43,NE,43,4.0,-999.0,19,0.00,,,0.00,992,WeatherHawk,2014-04-18 20:44:00,
2014-04-18 15:49:00,71.3,25.6,30.43,SSE,147,3.0,-999.0,18,0.00,,,0.00,1005,WeatherHawk,2014-04-18 20:49:00,
2014-04-18 15:54:00,73.6,28.8,30.43,NE,55,0.0,-999.0,19,0.00,,,0.00,999,WeatherHawk,2014-04-18 20:54:00,
2014-04-18 15:59:00,71.0,26.6,30.43,NNE,32,5.0,-999.0,19,0.00,,,0.00,942,WeatherHawk,2014-04-18 20:59:00,
2014-04-18 16:04:00,73.8,28.9,30.42,ENE,60,1.0,-999.0,19,0.00,,,0.00,897,WeatherHawk,2014-04-18 21:04:00,
2014-04-18 16:09:00,73.3,27.3,30.43,South,184,4.0,-999.0,18,0.00,,,0.00,870,WeatherHawk,2014-04-18 21:09:00,
2014-04-18 16:14:00,70.1,28.4,30.43,SE,143,2.0,-999.0,21,0.00,,,0.00,166,WeatherHawk,2014-04-18 21:14:00,
2014-04-18 16:19:00,70.1,28.4,30.43,South,172,0.0,-999.0,21,0.00,,,0.00,178,WeatherHawk,2014-04-18 21:19:00,
2014-04-18 16:24:00,70.3,29.7,30.43,South,184,0.0,-999.0,22,0.00,,,0.00,179,WeatherHawk,2014-04-18 21:24:00,
2014-04-18 16:29:00,69.4,30.0,30.44,NE,47,0.0,-999.0,23,0.00,,,0.00,161,WeatherHawk,2014-04-18 21:29:00,
2014-04-18 16:34:00,69.9,31.4,30.43,NNE,18,0.0,-999.0,24,0.00,,,0.00,174,WeatherHawk,2014-04-18 21:34:00,
2014-04-18 16:39:00,71.4,32.7,30.43,NNE,18,0.0,-999.0,24,0.00,,,0.00,203,WeatherHawk,2014-04-18 21:39:00,
2014-04-18 16:44:00,71.4,28.2,30.43,SSE,159,1.0,-999.0,20,0.00,,,0.00,794,WeatherHawk,2014-04-18 21:44:00,
2014-04-18 16:49:00,73.6,28.8,30.44,SE,131,0.0,-999.0,19,0.00,,,0.00,765,WeatherHawk,2014-04-18 21:49:00,
2014-04-18 16:54:00,72.7,28.1,30.43,NE,51,0.0,-999.0,19,0.00,,,0.00,429,WeatherHawk,2014-04-18 21:54:00,
2014-04-18 16:59:00,72.3,26.4,30.42,ENE,66,0.0,-999.0,18,0.00,,,0.00,474,WeatherHawk,2014-04-18 21:59:00,
2014-04-18 17:04:00,72.5,27.9,30.42,NE,44,0.0,-999.0,19,0.00,,,0.00,467,WeatherHawk,2014-04-18 22:04:00,
2014-04-18 17:09:00,72.2,24.9,30.42,South,175,0.0,-999.0,17,0.00,,,0.00,635,WeatherHawk,2014-04-18 22:09:00,
2014-04-18 17:14:00,74.1,26.5,30.42,South,171,0.0,-999.0,17,0.00,,,0.00,602,WeatherHawk,2014-04-18 22:14:00,
2014-04-18 17:19:00,74.5,29.5,30.42,South,190,1.0,-999.0,19,0.00,,,0.00,552,WeatherHawk,2014-04-18 22:19:00,
2014-04-18 17:24:00,71.7,25.9,30.41,South,176,7.0,-999.0,18,0.00,,,0.00,552,WeatherHawk,2014-04-18 22:24:00,
2014-04-18 17:29:00,71.8,26.0,30.42,SW,223,5.0,-999.0,18,0.00,,,0.00,325,WeatherHawk,2014-04-18 22:29:00,
2014-04-18 17:34:00,72.4,26.5,30.42,SW,224,6.0,-999.0,18,0.00,,,0.00,500,WeatherHawk,2014-04-18 22:34:00,
2014-04-18 17:40:00,72.2,26.4,30.41,SSE,150,4.0,-999.0,18,0.00,,,0.00,487,WeatherHawk,2014-04-18 22:40:00,
2014-04-18 17:44:00,72.0,24.8,30.41,South,177,3.0,-999.0,17,0.00,,,0.00,464,WeatherHawk,2014-04-18 22:44:00,
2014-04-18 17:49:00,72.6,26.6,30.41,ESE,123,0.0,-999.0,18,0.00,,,0.00,441,WeatherHawk,2014-04-18 22:49:00,
2014-04-18 17:54:00,71.7,24.5,30.41,SSE,161,2.0,-999.0,17,0.00,,,0.00,421,WeatherHawk,2014-04-18 22:54:00,
2014-04-18 18:00:00,73.2,28.5,30.40,NE,48,0.0,-999.0,19,0.00,,,0.00,388,WeatherHawk,2014-04-18 23:00:00,
2014-04-18 18:09:00,71.3,26.9,30.40,SSE,156,3.0,-999.0,19,0.00,,,0.00,357,WeatherHawk,2014-04-18 23:09:00,
2014-04-18 18:14:00,72.6,28.0,30.41,WSW,240,0.0,-999.0,19,0.00,,,0.00,335,WeatherHawk,2014-04-18 23:14:00,
2014-04-18 18:19:00,72.3,29.0,30.41,SSW,209,5.0,-999.0,20,0.00,,,0.00,276,WeatherHawk,2014-04-18 23:19:00,
2014-04-18 18:24:00,72.0,29.9,30.42,SSW,211,1.0,-999.0,21,0.00,,,0.00,246,WeatherHawk,2014-04-18 23:24:00,
2014-04-18 18:29:00,71.0,27.9,30.42,SSW,206,1.0,-999.0,20,0.00,,,0.00,261,WeatherHawk,2014-04-18 23:29:00,
2014-04-18 18:34:00,70.9,27.8,30.42,East,97,0.0,-999.0,20,0.00,,,0.00,196,WeatherHawk,2014-04-18 23:34:00,
2014-04-18 18:40:00,71.2,31.5,30.42,South,177,1.0,-999.0,23,0.00,,,0.00,215,WeatherHawk,2014-04-18 23:40:00,
2014-04-18 18:44:00,70.8,30.1,30.42,South,171,0.0,-999.0,22,0.00,,,0.00,174,WeatherHawk,2014-04-18 23:44:00,
2014-04-18 18:49:00,70.8,31.1,30.43,SSE,167,0.0,-999.0,23,0.00,,,0.00,184,WeatherHawk,2014-04-18 23:49:00,
2014-04-18 18:54:00,71.1,31.4,30.43,ESE,117,0.0,-999.0,23,0.00,,,0.00,205,WeatherHawk,2014-04-18 23:54:00,
2014-04-18 19:00:00,70.9,31.2,30.42,South,188,2.0,-999.0,23,0.00,,,0.00,170,WeatherHawk,2014-04-19 00:00:00,
2014-04-18 19:09:00,70.0,32.5,30.43,SSE,164,0.0,-999.0,25,0.00,,,0.00,113,WeatherHawk,2014-04-19 00:09:00,
2014-04-18 19:14:00,69.5,32.2,30.42,SSE,168,0.0,-999.0,25,0.00,,,0.00,61,WeatherHawk,2014-04-19 00:14:00,
2014-04-18 19:19:00,68.3,33.0,30.43,ESE,117,0.0,-999.0,27,0.00,,,0.00,38,WeatherHawk,2014-04-19 00:19:00,
2014-04-18 19:24:00,67.9,33.6,30.42,SE,135,0.0,-999.0,28,0.00,,,0.00,30,WeatherHawk,2014-04-19 00:24:00,
2014-04-18 19:29:00,67.2,35.5,30.43,SE,142,0.0,-999.0,31,0.00,,,0.00,27,WeatherHawk,2014-04-19 00:29:00,
2014-04-18 19:34:00,66.6,35.9,30.44,SE,126,0.0,-999.0,32,0.00,,,0.00,25,WeatherHawk,2014-04-19 00:34:00,
2014-04-18 19:40:00,67.7,37.6,30.44,ENE,61,0.0,-999.0,33,0.00,,,0.00,20,WeatherHawk,2014-04-19 00:40:00,
2014-04-18 19:44:00,66.4,37.1,30.44,ENE,61,0.0,-999.0,34,0.00,,,0.00,16,WeatherHawk,2014-04-19 00:44:00,
2014-04-18 19:49:00,65.2,37.6,30.44,ENE,61,0.0,-999.0,36,0.00,,,0.00,12,WeatherHawk,2014-04-19 00:49:00,
2014-04-18 19:54:00,64.4,38.2,30.43,ENE,61,0.0,-999.0,38,0.00,,,0.00,7,WeatherHawk,2014-04-19 00:54:00,
2014-04-18 20:00:00,64.6,38.5,30.44,ENE,61,0.0,-999.0,38,0.00,,,0.00,2,WeatherHawk,2014-04-19 01:00:00,
2014-04-18 20:09:00,61.6,39.5,30.45,ENE,60,0.0,-999.0,44,0.00,,,0.00,1,WeatherHawk,2014-04-19 01:09:00,
2014-04-18 20:14:00,61.3,39.8,30.45,ENE,60,0.0,-999.0,45,0.00,,,0.00,0,WeatherHawk,2014-04-19 01:14:00,
2014-04-18 20:19:00,60.7,40.4,30.45,ENE,60,0.0,-999.0,47,0.00,,,0.00,0,WeatherHawk,2014-04-19 01:19:00,
2014-04-18 20:24:00,62.2,41.7,30.46,NE,46,0.0,-999.0,47,0.00,,,0.00,0,WeatherHawk,2014-04-19 01:24:00,
2014-04-18 20:29:00,61.2,40.2,30.45,NE,46,0.0,-999.0,46,0.00,,,0.00,0,WeatherHawk,2014-04-19 01:29:00,
2014-04-18 20:34:00,62.0,41.0,30.45,NE,36,0.0,-999.0,46,0.00,,,0.00,0,WeatherHawk,2014-04-19 01:34:00,
2014-04-18 20:40:00,61.9,40.3,30.45,NE,38,0.0,-999.0,45,0.00,,,0.00,0,WeatherHawk,2014-04-19 01:40:00,
2014-04-18 20:44:00,61.4,39.9,30.46,NE,38,0.0,-999.0,45,0.00,,,0.00,0,WeatherHawk,2014-04-19 01:44:00,
2014-04-18 20:49:00,61.9,40.3,30.46,NE,38,0.0,-999.0,45,0.00,,,0.00,0,WeatherHawk,2014-04-19 01:49:00,
2014-04-18 20:54:00,62.0,40.4,30.45,NE,38,0.0,-999.0,45,0.00,,,0.00,0,WeatherHawk,2014-04-19 01:54:00,
2014-04-18 21:00:00,61.3,39.8,30.46,NE,41,0.0,-999.0,45,0.00,,,0.00,0,WeatherHawk,2014-04-19 02:00:00,
2014-04-18 21:05:00,62.6,40.9,30.46,NE,41,0.0,-999.0,45,0.00,,,0.00,1,WeatherHawk,2014-04-19 02:05:00,
2014-04-18 21:09:00,61.7,39.6,30.45,NE,41,0.0,-999.0,44,0.00,,,0.00,0,WeatherHawk,2014-04-19 02:09:00,
2014-04-18 21:14:00,62.0,39.2,30.46,NNE,21,0.0,-999.0,43,0.00,,,0.00,1,WeatherHawk,2014-04-19 02:14:00,
2014-04-18 21:19:00,62.0,39.2,30.46,NE,35,0.0,-999.0,43,0.00,,,0.00,0,WeatherHawk,2014-04-19 02:19:00,
2014-04-18 21:25:00,60.5,38.5,30.46,NE,35,0.0,-999.0,44,0.00,,,0.00,0,WeatherHawk,2014-04-19 02:25:00,
2014-04-18 21:29:00,60.4,38.4,30.46,NE,43,0.0,-999.0,44,0.00,,,0.00,0,WeatherHawk,2014-04-19 02:29:00,
2014-04-18 21:34:00,61.0,38.9,30.47,NNE,31,0.0,-999.0,44,0.00,,,0.00,0,WeatherHawk,2014-04-19 02:34:00,
2014-04-18 21:40:00,59.2,37.3,30.46,NE,46,0.0,-999.0,44,0.00,,,0.00,0,WeatherHawk,2014-04-19 02:40:00,
2014-04-18 21:45:00,60.5,38.5,30.47,NE,52,0.0,-999.0,44,0.00,,,0.00,0,WeatherHawk,2014-04-19 02:45:00,
2014-04-18 21:49:00,59.6,38.8,30.47,NE,34,0.0,-999.0,46,0.00,,,0.00,0,WeatherHawk,2014-04-19 02:49:00,
2014-04-18 21:55:00,59.9,39.1,30.47,NE,34,0.0,-999.0,46,0.00,,,0.00,0,WeatherHawk,2014-04-19 02:55:00,
2014-04-18 22:00:00,60.1,39.2,30.48,NE,34,0.0,-999.0,46,0.00,,,0.00,0,WeatherHawk,2014-04-19 03:00:00,
2014-04-18 22:05:00,60.4,39.0,30.49,NE,39,0.0,-999.0,45,0.00,,,0.00,0,WeatherHawk,2014-04-19 03:05:00,
2014-04-18 22:10:00,60.4,38.3,30.48,NE,45,0.0,-999.0,44,0.00,,,0.00,0,WeatherHawk,2014-04-19 03:10:00,
2014-04-18 22:15:00,61.6,38.8,30.48,North,6,0.0,-999.0,43,0.00,,,0.00,0,WeatherHawk,2014-04-19 03:15:00,
2014-04-18 22:20:00,60.3,37.7,30.48,ENE,67,0.0,-999.0,43,0.00,,,0.00,0,WeatherHawk,2014-04-19 03:20:00,
2014-04-18 22:25:00,61.4,38.1,30.48,ESE,109,0.0,-999.0,42,0.00,,,0.00,0,WeatherHawk,2014-04-19 03:25:00,
2014-04-18 22:30:00,61.4,38.1,30.48,ESE,109,0.0,-999.0,42,0.00,,,0.00,0,WeatherHawk,2014-04-19 03:30:00,
2014-04-18 22:35:00,62.0,38.1,30.48,ESE,122,0.0,-999.0,41,0.00,,,0.00,0,WeatherHawk,2014-04-19 03:35:00,
2014-04-18 22:40:00,61.6,37.0,30.48,ESE,113,0.0,-999.0,40,0.00,,,0.00,0,WeatherHawk,2014-04-19 03:40:00,
2014-04-18 22:45:00,61.9,36.6,30.48,East,92,0.0,-999.0,39,0.00,,,0.00,0,WeatherHawk,2014-04-19 03:45:00,
2014-04-18 22:50:00,62.3,37.1,30.48,ESE,118,0.0,-999.0,39,0.00,,,0.00,0,WeatherHawk,2014-04-19 03:50:00,
2014-04-18 22:55:00,61.6,36.4,30.48,ESE,111,0.0,-999.0,39,0.00,,,0.00,0,WeatherHawk,2014-04-19 03:55:00,